This demonstration page uses our WeatherBlox Daily Observations layout. Learn more.

Left ArrowRight Arrow

41.55636, -103.73856

Hourly Observations for January 4, 2015

Temp ( °F °C ) Dew Point ( °F °C ) Humidity (%) Winds ( mph kmh ) Pressure ( in mb ) Visibility ( mi km ) Precip ( " mm )
12:53 am 00:53 Mostly Cloudy -9 -22.8 -12 -24.4 87 87 NNW 3 6 30.56 1035 10 16 0.00 0.00
1:53 am 01:53 Cloudy -8 -22.2 -12 -24.4 82 82 NNE 8 13 30.56 1035 10 16 0.00 0.00
2:53 am 02:53 Mostly Clear -9 -22.8 -13 -25 82 82 NE 8 13 30.54 1034 10 16 0.00 0.00
3:53 am 03:53 Clear -9 -22.8 -12 -24.4 87 87 S 3 6 30.52 1034 10 16 0.00 0.00
4:53 am 04:53 Partly Cloudy -10 -23.3 -15 -26.1 78 78 Calm 30.51 1033 10 16 0.00 0.00
5:53 am 05:53 Partly Cloudy -8 -22.2 -13 -25 78 78 Calm 30.53 1034 10 16 0.00 0.00
6:53 am 06:53 Cloudy -9 -22.8 -12 -24.4 87 87 WSW 5 7 30.56 1035 10 16 0.00 0.00
7:53 am 07:53 Sunny -9 -22.8 -11 -23.9 91 91 SW 5 7 30.60 1036 8 13 0.00 0.00
8:53 am 08:53 Mostly Sunny -7 -21.7 -12 -24.4 79 79 NNE 7 11 30.60 1036 10 16 0.00 0.00
9:53 am 09:53 Sunny -2 -18.9 -6 -21.1 83 83 W 3 6 30.61 1037 10 16 0.00 0.00
10:53 am 10:53 Mostly Sunny -1 -18.3 -7 -21.7 75 75 NNW 7 11 30.63 1037 9 14 0.00 0.00
11:53 am 11:53 Cloudy 2 -16.7 -4 -20 76 76 W 3 6 30.58 1036 10 16 0.00 0.00
12:53 pm 12:53 Cloudy 2 -16.7 -4 -20 76 76 WNW 7 11 30.57 1035 10 16 0.00 0.00
1:53 pm 13:53 Partly Cloudy 4 -15.6 -3 -19.4 73 73 WSW 3 6 30.59 1036 10 16 0.00 0.00
2:53 pm 14:53 Mostly Sunny 3 -16.1 -4 -20 72 72 WNW 3 6 30.63 1037 10 16 0.00 0.00
3:53 pm 15:53 Partly Cloudy 3 -16.1 -4 -20 72 72 Calm 30.64 1038 10 16 0.00 0.00
4:53 pm 16:53 Cloudy 3 -16.1 -3 -19.4 76 76 Calm 30.67 1039 10 16 0.00 0.00
5:53 pm 17:53 Cloudy 3 -16.1 -2 -18.9 79 79 WNW 5 7 30.67 1039 10 16 0.00 0.00
6:53 pm 18:53 Cloudy 1 -17.2 -4 -20 79 79 NW 3 6 30.71 1040 10 16 0.00 0.00
7:53 pm 19:53 Clear 1 -17.2 -4 -20 79 79 Calm 30.72 1040 10 16 0.00 0.00
8:53 pm 20:53 Clear -3 -19.4 -7 -21.7 82 82 Calm 30.73 1041 9 14 0.00 0.00
9:53 pm 21:53 Clear -7 -21.7 -10 -23.3 87 87 NW 6 9 30.71 1040 8 13 0.00 0.00
10:53 pm 22:53 Clear -4 -20 -7 -21.7 86 86 Calm 30.68 1039 7 11 0.00 0.00
11:53 pm 23:53 Clear -5 -20.6 -9 -22.8 83 83 Calm 30.66 1038 7 11 0.00 0.00

Powered by AerisWeather